カタログに戻る

COSMOS 2251 DEB

運用中LEO
NORAD 35065·DEBRIS·🇷🇺 Russia

打ち上げ Jun 16, 1993 から Plesetsk Cosmodrome

Loading…

次のパス (今後24時間)

TLE

経年Source: Space-Track

元期: Sep 9, 2026, 04:02 UTC

1 35065U 93036AHU 26252.16849723  .00000847  00000-0  24251-3 0  9993
2 35065  74.0191  49.1646 0018841 111.2126 249.1048 14.46431167722601

AllMySatでCOSMOS 2251 DEBをリアルタイム追跡

Download on the App Store